Location: Regensburg
(48.4565°N, 10.3217°E)
Time: 11:33:31
(UTC+01:00)

ISS - Pass Details

Date: 11 November 2017
Orbit: 402 x 407 km, 51.6° (Epoch: 19 November)

Event Time Altitude Azimuth Distance (km) Brightness Sun altitude
Exits shadow 06:42:44 - 290° (WNW) 1,554 -1.6 -6.6°
Reaches altitude 10° 06:42:58 10° 289° (WNW) 1,458 -1.7 -6.6°
Maximum altitude 06:46:13 70° 206° (SSW) 431 -3.7 -6.1°
Drops below altitude 10° 06:49:27 10° 122° (ESE) 1,452 0.7 -5.6°
Sets 06:51:32 0° 120° (ESE) 2,309 2.3 -5.2°
